Location: Chippewa Lake
(41.0698°N, 81.9010°W)
Time: 01:35:52
(UTC+00:00)

Envisat - Visible Passes

Search period start: 20 July 2024 00:00
Search period end: 30 July 2024 00:00
Orbit: 762 x 764 km, 98.3° (Epoch: 19 July)

Date Brightness Start Highest point End Pass type
(mag) Time Alt. Az. Time Alt. Az. Time Alt. Az.
20 Jul 3.5 08:26:01 10° NNE 08:31:01 58° E 08:35:28 13° S visible
21 Jul 4.8 07:49:16 10° NE 07:53:27 25° E 07:57:35 10° SSE visible
21 Jul 3.7 09:27:50 10° N 09:32:28 37° WNW 09:37:05 10° SW visible
22 Jul 5.6 07:14:25 10° ENE 07:15:40 11° E 07:16:55 10° ESE visible
22 Jul 3.0 08:50:08 10° NNE 08:55:14 83° WNW 08:59:50 13° SSW visible
23 Jul 3.9 08:12:57 10° NNE 08:17:47 43° E 08:21:57 13° SSE visible
24 Jul 5.1 07:36:32 10° NE 07:40:08 19° E 07:43:44 10° SE visible
24 Jul 3.4 09:14:28 10° N 09:19:21 49° WNW 09:24:13 10° SW visible
25 Jul 3.1 08:36:57 10° NNE 08:42:02 75° ESE 08:46:19 15° S visible
26 Jul 4.4 07:59:58 10° NNE 08:04:32 33° E 08:08:25 13° SSE visible
26 Jul 4.0 09:39:01 10° N 09:43:23 29° WNW 09:47:43 10° SW visible
27 Jul 5.4 07:24:05 10° ENE 07:26:48 14° E 07:29:31 10° ESE visible
27 Jul 3.1 09:01:10 10° N 09:06:12 65° WNW 09:10:40 13° SSW visible
28 Jul 3.5 08:23:49 10° NNE 08:28:49 56° E 08:32:46 16° S visible
29 Jul 4.8 07:47:05 10° NE 07:51:14 25° E 07:54:52 12° SE visible
29 Jul 3.7 09:25:36 10° N 09:30:16 38° WNW 09:34:56 10° SW visible
